Regional Weather Roundup
Issued by NWS

Home | Current Version | Previous Version | Text Only | Print | Product List | Glossary Off
Versions: 1 2 3 4 5 6 7 8 9 10 11 12 13 14 15 16 17 18 19 20 21 22 23 24 25 26 27 28 29 30 31 32 33 34 35 36 37 38 39 40 41 42 43 44 45 46 47 48 49 50

000
ASUS43 KDTX 231310
RWRMI
MICHIGAN HOURLY REGIONAL WEATHER ROUNDUP
NATIONAL WEATHER SERVICE DETROIT/PONTIAC MI
900 AM EDT SUN JUL 23 2017

NOTE: "FAIR" INDICATES FEW OR NO CLOUDS BELOW 12,000 FEET WITH NO
SIGNIFICANT WEATHER AND/OR OBSTRUCTION TO VISIBILITY.

MIZ047>049-052>055-059>063-066>070-074>076-081>083-231400-
SOUTHEAST LOWER MICHIGAN

CITY           SKY/WX    TMP DP  RH WIND       PRES   REMARKS
ADRIAN         CLOUDY    69  67  93 SW3       29.83R
ALMA           CLOUDY    67  65  96 S6        29.81F FOG
ANN ARBOR      MOSUNNY   73  67  81 SW5       29.79F
BAD AXE        PTSUNNY   68  68  99 CALM      29.80S
CARO           DRIZZLE   68  64  88 CALM      29.79R
DETROIT CITY   CLOUDY    72  66  81 W5        29.78F
DETROIT        CLOUDY    74  66  76 NW5       29.80S
FLINT          CLOUDY    67  65  93 SW6       29.81R
GROSSE ILE     CLOUDY    72  66  83 W5        29.78S
HILLSDALE      FOG       68  66  94 CALM      29.82F VSB 3/4
HOWELL         CLOUDY    68  65  89 CALM      29.81S

CITY           SKY/WX    TMP DP  RH WIND       PRES   REMARKS
JACKSON        LGT RAIN  68  66  93 SW6       29.82S
LAMBERTVILLE   PTSUNNY   70  67  90 W3        29.82R
LANSING        CLOUDY    69  65  86 W12       29.81R
LAPEER         CLOUDY    69  64  84 CALM      29.79F
MASON          CLOUDY    68  66  92 W5        29.82R
MONROE         PTSUNNY   70  68  93 W6        29.80R
MT. CLEMENS    CLOUDY    68  68 100 NW6       29.77S
PONTIAC        PTSUNNY   69  65  86 CALM      29.79S
PORT HOPE        N/A     69  66  90 SE5       29.78R
PORT HURON     CLOUDY    70  64  83 CALM      29.78S
TRI CITIES     CLOUDY    68  67  96 S6        29.80S FOG
MIDLAND        CLOUDY    67  65  95 W5        29.81R
TROY           CLOUDY    71  65  82 CALM      29.81S
SAGINAW HB     CLOUDY    68  64  88 S3        29.79S FOG
$$
MIZ043>046-050>051-056>058-064>065-071>073-077>080-231400-
SOUTHWEST LOWER MICHIGAN

CITY           SKY/WX    TMP DP  RH WIND       PRES   REMARKS
BATTLE CREEK   CLOUDY    71  68  90 S5        29.82F
BENTON HARBOR  PTSUNNY   72  68  87 VRB5      29.81R FOG
BIG RAPIDS     PTSUNNY   69  66  88 NW5       29.79F
COLDWATER      CLOUDY    69  69 100 CALM      29.81F FOG
FREMONT        CLOUDY    67  67 100 CALM      29.78S
HOLLAND        CLOUDY    69  68  96 W3        29.80F FOG
GRAND RAPIDS   CLOUDY    70  69  97 SW12      29.78F FOG
IONIA          LGT RAIN  68  67  98 S7        29.78F
KALAMAZOO      CLOUDY    70  67  90 W3        29.82S FOG
LUDINGTON      PTSUNNY   69  67  95 SW3       29.78S
MARSHALL       CLOUDY    69  69  98 W5        29.82S FOG
MOUNT PLEASANT CLOUDY    66  64  94 CALM      29.80F FOG
MUSKEGON       PTSUNNY   70  68  93 S9        29.79R
SOUTH HAVEN    CLOUDY    68  68  99 CALM      29.82S FOG
$$
MIZ016>042-231400-
NORTHERN LOWER MICHIGAN

CITY           SKY/WX    TMP DP  RH WIND       PRES   REMARKS
ALPENA         CLOUDY    68  64  87 SE6       29.80R
BELLAIRE       CLOUDY    69  62  79 CALM      29.77F
CADILLAC       PTSUNNY   69  66  89 SE3       29.81S
CHARLEVOIX     CLOUDY    69  65  86 SE5       29.79S
FRANKFORT      CLOUDY    70  69  99 SW3       29.77S
GAYLORD        CLOUDY    66  61  84 S6        29.80S
GRAYLING       CLOUDY    66  61  84 SE3       29.81S
HARBOR SPRINGS CLOUDY    65  64  94 CALM      29.77S
HOUGHTON LAKE  CLOUDY    68  64  87 S6        29.82R
MANISTEE       PTSUNNY   68  66  93 CALM      29.78S
OSCODA         MOSUNNY   69  65  87 CALM      29.80R
PELLSTON       LGT RAIN  66  64  93 SE7       29.78S
ROGERS CITY    CLOUDY    67  60  77 SE7       29.80S
TRAVERSE CITY  PTSUNNY   71  65  81 SW6       29.76R
$$
MIZ007>008-015-231400-
EASTERN UPPER MICHIGAN

CITY           SKY/WX    TMP DP  RH WIND       PRES   REMARKS
KINROSS        LGT RAIN  59  58  96 E15       29.80R
MACKINAC ISLAN RAIN      64  64  98 SE6       29.77S
NEWBERRY       RAIN      62  61  97 NE12      29.77R
S. S. MARIE    RAIN      59  57  93 E10G18    29.82F FOG
MUNISING         N/A     61  59  93 VRB7      29.77R
$$
MIZ004>006-011>014-085-231400-
CENTRAL UPPER MICHIGAN

CITY           SKY/WX    TMP DP  RH WIND       PRES   REMARKS
MANISTIQUE     CLOUDY    64  61  89 N5        29.75S
ESCANABA       CLOUDY    65  64  97 NW5       29.77R
MENOMINEE      CLOUDY    66  66 100 N3        29.78R FOG
SAWYER-GWINN   FOG       57  57 100 N8        29.80R VSB 1/8
$$
MIZ001>003-009>011-084-231400-
WESTERN UPPER MICHIGAN

CITY           SKY/WX    TMP DP  RH WIND       PRES   REMARKS
IRON MOUNTAIN  PTSUNNY   65  60  84 N9        29.80R
HOUGHTON       CLOUDY    59  57  93 N6        29.83S
COPPER HARBOR    N/A     53  51  93 N7        29.85R
IRONWOOD       FOG       54  54 100 NW6       29.87R VSB 1/4
$$

ABBREVIATIONS USED IN REMARKS
   TC - TEMPERATURE IN CELSIUS
  WCI - WIND CHILL INDEX
   HX - HEAT INDEX
  VSB - VISIBILITY




USA.gov is the U.S. government's official web portal to all federal, state and local government web resources and services.